Weather History for KRNM - August, 2013

Change the Weather History Date:

Sunday, August 25, 2013

  Actual Average Record
Temperature  
Mean Temperature 76 °F 74 °F  
Max Temperature 94 °F 91 °F 107 °F (1985)
Min Temperature 58 °F 57 °F 42 °F (1978)
Degree Days  
Heating Degree Days 0 0  
Month to date heating degree days 1 0  
Since 1 June heating degree days 3 29  
Since 1 July heating degree days 1 2  
Cooling Degree Days 11 9  
Month to date cooling degree days 158 224  
Year to date cooling degree days 565 559  
Since 1 June cooling degree days 517 532  
Growing Degree Days 26 (Base 50)    
Moisture  
Dew Point 55 °F    
Average Humidity 55    
Maximum Humidity 84    
Minimum Humidity 26    
Precipitation  
Precipitation 0.00 in 0.01 in 0.01 in (2005)
Month to date precipitation 0.00 0.11  
Year to date precipitation 4.58 11.57  
Since 1 July precipitation 0.08  
Snow  
Snow 0.00 in - - ()
Month to date snowfall 0.0  
Year to date snowfall 0.0  
Snow Depth 0.00 in    
Sea Level Pressure  
Sea Level Pressure 29.86 in    
Wind  
Wind Speed 5 mph (West)    
Max Wind Speed 17 mph    
Max Gust Speed 26 mph    
Visibility 10 miles    
Events      
T = Trace of Precipitation, MM = Missing Value Source: NWS Daily Summary

Daily Weather History Graph

Daily Weather History Graph

Search for Another Location

Airport or City:

Trip Planner

Search our weather history database for the weather conditions in past years. The results will help you decide how hot, cold, wet, or windy it might be!

Date:

Astronomy

Aug. 25, 2013 Rise Set
Actual Time 6:17 AM PDT 7:21 PM PDT
Civil Twilight 5:52 AM PDT 7:46 PM PDT
Nautical Twilight 5:21 AM PDT 8:16 PM PDT
Astronomical Twilight 4:50 AM PDT 8:47 PM PDT
Moon 10:15 PM PDT (8/25) 11:05 AM PDT (8/25)
Length of Visible Light 13h 54m
Length of Day
13h 03m
Waning Gibbous, 75% of the Moon is Illuminated
Aug 25
Waning Gibbous
Aug 28
Last Quarter
Sep 5
New
Sep 12
First Quarter
Sep 19
Full

Hourly Weather History & Observations

Time (PDT) Temp. Heat Index Dew Point Humidity Pressure Visibility Wind Dir Wind Speed Gust Speed Precip Events Conditions
12:53 AM 62.1 °F - 57.0 °F 84% 29.85 in 10.0 mi Calm Calm - N/A   Clear
1:53 AM 62.1 °F - 55.9 °F 80% 29.84 in 10.0 mi East 3.5 mph - N/A   Clear
2:53 AM 59.0 °F - 54.0 °F 83% 29.82 in 10.0 mi Calm Calm - N/A   Clear
3:53 AM 61.0 °F - 55.0 °F 81% 29.82 in 10.0 mi Calm Calm - N/A   Clear
4:53 AM 60.1 °F - 54.0 °F 80% 29.84 in 10.0 mi Calm Calm - N/A   Clear
5:53 AM 60.1 °F - 53.1 °F 78% 29.85 in 10.0 mi Calm Calm - N/A   Clear
6:53 AM 62.1 °F - 55.0 °F 78% 29.87 in 10.0 mi Calm Calm - N/A   Clear
7:53 AM 69.1 °F - 55.9 °F 63% 29.87 in 10.0 mi Calm Calm - N/A   Clear
8:53 AM 82.9 °F 82.6 °F 57.9 °F 42% 29.87 in 10.0 mi Calm Calm - N/A   Clear
9:53 AM 90.0 °F - 50.0 °F 25% 29.88 in 10.0 mi SSW 8.1 mph - N/A   Clear
10:53 AM 90.0 °F 88.6 °F 57.0 °F 33% 29.87 in 10.0 mi NW 10.4 mph - N/A   Clear
11:53 AM 91.9 °F 89.5 °F 54.0 °F 27% 29.87 in 10.0 mi West 11.5 mph 18.4 mph N/A   Clear
12:53 PM 93.0 °F 90.8 °F 54.0 °F 27% 29.86 in 10.0 mi West 9.2 mph - N/A   Scattered Clouds
1:53 PM 93.0 °F 91.7 °F 57.0 °F 30% 29.85 in 10.0 mi WSW 15.0 mph 19.6 mph N/A   Clear
2:53 PM 91.0 °F 89.7 °F 57.0 °F 32% 29.86 in 10.0 mi West 9.2 mph 18.4 mph N/A   Clear
3:53 PM 89.1 °F 88.2 °F 59.0 °F 36% 29.85 in 10.0 mi WNW 11.5 mph 18.4 mph N/A   Clear
4:53 PM 88.0 °F 86.1 °F 55.0 °F 32% 29.86 in 10.0 mi WNW 9.2 mph - N/A   Clear
5:53 PM 86.0 °F 85.7 °F 60.1 °F 41% 29.87 in 10.0 mi WSW 4.6 mph - N/A   Scattered Clouds
6:53 PM 84.0 °F 84.0 °F 60.1 °F 44% 29.87 in 10.0 mi South 9.2 mph - N/A   Clear
7:53 PM 80.1 °F - 52.0 °F 38% 29.88 in 10.0 mi Calm Calm - N/A   Clear
8:53 PM 75.9 °F - 51.1 °F 42% 29.88 in 10.0 mi Calm Calm - N/A   Clear
9:53 PM 77.0 °F - 51.1 °F 40% 29.88 in 10.0 mi Calm Calm - N/A   Clear
10:53 PM 75.0 °F - 51.1 °F 43% 29.89 in 10.0 mi Calm Calm - N/A   Clear
11:53 PM 73.0 °F - 52.0 °F 48% 29.89 in 10.0 mi WNW 3.5 mph - N/A   Clear